Latest Coastal Weather Observations for Browse Island

IDW60701

Issued at 6:33 pm WST Sunday 9 August 2020 (issued every 10 minutes, with the page automatically refreshed every 10 minutes)

About coastal observations | Map of coastal stations | Coastal observations for WA | Marine services | Other Formats
Station Details ID: 200784 Name: BROWSE ISLAND Lat: -14.11 Lon: 123.55 Height: 3.7 m
Data from the previous 72 hours. | See also: Recent months at Browse Island
Date/Time
WST
Wind Sea
Height
m
Swell Vis
km
Cloud Weather Temp
°C
Press
hPa
Rain since
9am
mm
Dir  Spd
kts
Gust
kts
Height
m
Period
s
Dir
09/06:30pm ENE 14 14 - - - - - - - 26.0 1012.0 -
09/06:00pm ENE 13 - - - - - - - - 26.5 1012.6 -
09/05:30pm ENE 14 - - - - - - - - 27.0 1012.0 -
09/05:00pm ENE 13 - - - - - - - - 26.9 1012.6 -
09/04:30pm ENE 12 - - - - - - - - 27.0 1012.0 -
09/04:00pm E 11 - - - - - - - - 27.2 1012.3 -
09/03:30pm E 12 - - - - - - - - 28.0 1012.0 -
09/03:00pm E 12 - - - - - - - - 27.7 1012.0 -
09/02:30pm E 11 - - - - - - - - 28.0 1012.0 -
09/02:00pm E 10 - - - - - - - - 28.0 1012.3 -
09/01:30pm E 11 - - - - - - - - 28.0 1012.0 -
09/01:00pm E 11 - - - - - - - - 27.8 1012.9 -
09/12:30pm E 11 - - - - - - - - 27.0 1013.0 -
09/12:00pm E 10 - - - - - - - - 27.5 1013.6 -
09/11:30am E 10 - - - - - - - - 28.0 1014.0 -
09/11:00am E 10 - - - - - - - - 27.6 1014.4 -
09/10:30am E 9 - - - - - - - - 28.0 1014.0 -
09/10:00am E 9 - - - - - - - - 27.3 1014.8 -
09/09:30am E 9 - - - - - - - - 27.0 1015.0 -
09/09:00am ENE 8 - - - - - - - - 27.3 1014.9 -
09/08:30am ENE 9 - - - - - - - - 27.0 1014.0 -
09/08:00am ENE 9 - - - - - - - - 26.3 1014.2 -
09/07:30am ENE 9 - - - - - - - - 26.0 1014.0 -
09/07:00am ENE 10 - - - - - - - - 25.6 1013.9 -
09/06:30am NE 11 - - - - - - - - 26.0 1013.0 -
09/06:00am ENE 9 - - - - - - - - 25.4 1013.5 -
09/05:30am ENE 10 - - - - - - - - 25.0 1013.0 -
09/05:00am ENE 10 - - - - - - - - 25.5 1013.1 -
09/04:30am ENE 9 - - - - - - - - 26.0 1013.0 -
09/04:00am ENE 10 - - - - - - - - 25.6 1012.8 -
09/03:30am NE 10 - - - - - - - - 26.0 1012.0 -
09/03:00am NE 10 - - - - - - - - 25.6 1012.9 -
09/02:30am NNE 10 - - - - - - - - 25.0 1013.0 -
09/02:00am N 11 - - - - - - - - 25.4 1012.9 -
09/01:30am N 11 - - - - - - - - 25.0 1013.0 -
09/01:00am N 11 - - - - - - - - 25.4 1013.1 -
09/12:30am N 10 - - - - - - - - 25.0 1013.0 -
09/12:00am NNE 10 - - - - - - - - 25.2 1013.5 -
 
Date/Time
WST
Wind Sea
Height
m
Swell Vis
km
Cloud Weather Temp
°C
Press
hPa
Rain since
9am
mm
Dir  Spd
kts
Gust
kts
Height
m
Period
s
Dir
08/11:30pm NNE 10 - - - - - - - - 25.0 1013.0 -
08/11:00pm NNE 11 - - - - - - - - 25.3 1013.7 -
08/10:30pm NE 11 - - - - - - - - 25.0 1013.0 -
08/10:00pm NE 11 - - - - - - - - 25.6 1013.8 -
08/09:30pm NE 11 - - - - - - - - 26.0 1014.0 -
08/09:00pm NE 12 - - - - - - - - 25.7 1013.9 -
08/08:30pm ENE 12 16 - - - - - - - 25.6 1013.7 -
08/08:00pm ENE 11 - - - - - - - - 25.6 1013.7 -
08/07:30pm ENE 11 - - - - - - - - 26.0 1013.0 -
08/07:00pm ENE 11 14 - - - - - - - 25.6 1013.0 -
08/06:30pm E 11 - - - - - - - - 25.0 1012.0 -
08/06:00pm E 11 - - - - - - - - 25.4 1012.5 -
08/05:30pm E 10 - - - - - - - - 26.0 1012.0 -
08/05:00pm ENE 9 - - - - - - - - 25.9 1012.2 -
08/04:30pm ENE 10 - - - - - - - - 26.0 1012.0 -
08/04:00pm ENE 10 - - - - - - - - 26.0 1011.6 -
08/03:30pm ENE 9 - - - - - - - - 27.0 1011.0 -
08/03:00pm ENE 9 - - - - - - - - 26.5 1011.6 -
08/02:30pm ENE 8 - - - - - - - - 26.0 1011.0 -
08/02:00pm NE 8 - - - - - - - - 26.7 1011.7 -
08/01:30pm NE 7 - - - - - - - - 27.0 1012.0 -
08/01:00pm NE 8 - - - - - - - - 26.2 1012.3 -
08/12:30pm NNE 8 - - - - - - - - 26.0 1012.0 -
08/12:00pm NE 10 - - - - - - - - 26.4 1013.1 -
08/11:30am NE 11 - - - - - - - - 26.0 1013.0 -
08/11:00am NE 11 - - - - - - - - 26.7 1013.9 -
08/10:30am NE 9 - - - - - - - - 27.0 1014.0 -
08/10:00am ENE 10 - - - - - - - - 26.3 1014.2 -
08/09:30am ENE 9 - - - - - - - - 26.0 1014.0 -
08/09:00am ENE 10 - - - - - - - - 25.9 1014.1 -
08/08:30am ENE 9 - - - - - - - - 26.0 1014.0 -
08/08:00am ENE 9 - - - - - - - - 25.9 1013.7 -
08/07:30am ENE 9 - - - - - - - - 26.0 1013.0 -
08/07:00am E 10 - - - - - - - - 25.5 1013.2 -
08/06:30am E 9 - - - - - - - - 25.0 1013.0 -
08/06:00am E 9 - - - - - - - - 25.0 1012.7 -
08/05:30am E 9 - - - - - - - - 25.0 1012.0 -
08/05:00am ESE 8 - - - - - - - - 25.0 1012.4 -
08/04:30am ESE 7 - - - - - - - - 25.0 1012.0 -
08/04:00am SE 8 - - - - - - - - 25.1 1012.2 -
08/03:30am SSE 7 - - - - - - - - 25.0 1012.0 -
08/03:00am SSE 8 - - - - - - - - 25.0 1012.0 -
08/02:30am SSE 7 - - - - - - - - 25.0 1012.0 -
08/02:00am SSE 8 - - - - - - - - 25.0 1012.5 -
08/01:30am SSE 7 - - - - - - - - 25.0 1012.0 -
08/01:00am SSE 7 - - - - - - - - 25.0 1013.0 -
08/12:30am SE 6 - - - - - - - - 25.0 1013.0 -
08/12:00am SE 5 - - - - - - - - 24.9 1013.6 -
 
Date/Time
WST
Wind Sea
Height
m
Swell Vis
km
Cloud Weather Temp
°C
Press
hPa
Rain since
9am
mm
Dir  Spd
kts
Gust
kts
Height
m
Period
s
Dir
07/11:30pm SE 6 - - - - - - - - 25.0 1013.0 -
07/11:00pm SSE 6 - - - - - - - - 24.9 1013.9 -
07/10:30pm SE 7 - - - - - - - - 25.0 1014.0 -
07/10:00pm SE 7 - - - - - - - - 24.9 1014.1 -
07/09:30pm SE 6 - - - - - - - - 25.0 1014.0 -
07/09:00pm SE 7 - - - - - - - - 24.9 1013.9 -
07/08:30pm ESE 7 - - - - - - - - 25.0 1013.0 -
07/08:00pm SE 8 - - - - - - - - 24.7 1013.5 -
07/07:30pm ESE 8 - - - - - - - - 25.0 1013.0 -
07/07:00pm ESE 8 - - - - - - - - 24.8 1013.1 -
07/06:30pm ESE 8 - - - - - - - - 25.0 1013.0 -
07/06:00pm ESE 8 - - - - - - - - 24.8 1012.5 -
07/05:30pm ESE 10 - - - - - - - - 25.0 1012.0 -
07/05:00pm ESE 10 - - - - - - - - 25.2 1012.0 -
07/04:30pm ESE 11 - - - - - - - - 26.0 1012.0 -
07/04:00pm ESE 10 - - - - - - - - 25.4 1011.7 -
07/03:30pm ESE 11 - - - - - - - - 26.0 1011.0 -
07/03:00pm ESE 11 - - - - - - - - 26.1 1011.8 -
07/02:30pm E 10 - - - - - - - - 26.0 1012.0 -
07/02:00pm E 10 - - - - - - - - 26.3 1012.0 -
07/01:30pm ESE 11 - - - - - - - - 26.0 1012.0 -
07/01:00pm ESE 9 - - - - - - - - 27.1 1012.3 -
07/12:30pm ESE 9 - - - - - - - - 27.0 1012.0 -
07/12:00pm SE 7 - - - - - - - - 26.4 1012.7 -
07/11:30am SE 6 - - - - - - - - 27.0 1013.0 -
07/11:00am ESE 7 - - - - - - - - 26.8 1013.2 -
07/10:30am SE 9 - - - - - - - - 26.0 1013.0 -
07/10:00am SE 10 - - - - - - - - 26.3 1013.6 -
07/09:30am SE 10 - - - - - - - - 26.0 1013.0 -
07/09:00am SE 12 - - - - - - - - 25.6 1013.8 -
07/08:30am SE 10 - - - - - - - - 26.0 1013.0 -
07/08:00am SE 9 - - - - - - - - 25.4 1013.4 -
07/07:30am SE 10 - - - - - - - - 25.0 1013.0 -
07/07:00am SE 11 - - - - - - - - 25.1 1012.9 -
07/06:30am SE 11 - - - - - - - - 25.0 1012.0 -
07/06:00am SSE 12 - - - - - - - - 25.0 1012.4 -
07/05:30am SSE 12 - - - - - - - - 25.0 1012.0 -
07/05:00am SSE 13 - - - - - - - - 25.3 1012.0 -
07/04:30am SE 11 - - - - - - - - 26.0 1012.0 -
07/04:00am SSE 11 - - - - - - - - 25.4 1011.8 -
07/03:30am SSE 11 - - - - - - - - 25.0 1011.0 -
07/03:00am SSE 11 - - - - - - - - 25.4 1011.6 -
07/02:30am SSE 11 - - - - - - - - 25.0 1011.0 -
07/02:00am S 12 - - - - - - - - 25.5 1011.6 -
07/01:30am SSE 12 14 - - - - - - - 25.7 1011.6 -
07/01:00am S 13 - - - - - - - - 25.6 1011.6 -
07/12:30am S 12 - - - - - - - - 25.0 1011.0 -
07/12:00am S 11 - - - - - - - - 25.5 1012.0 -
 
Date/Time
WST
Wind Sea
Height
m
Swell Vis
km
Cloud Weather Temp
°C
Press
hPa
Rain since
9am
mm
Dir  Spd
kts
Gust
kts
Height
m
Period
s
Dir
06/11:30pm S 12 - - - - - - - - 26.0 1012.0 -
06/11:00pm S 12 - - - - - - - - 25.9 1012.0 -
06/10:30pm S 13 - - - - - - - - 26.0 1012.0 -
06/10:00pm S 14 - - - - - - - - 25.8 1012.1 -
06/09:30pm SSE 15 - - - - - - - - 26.0 1012.0 -
06/09:00pm S 16 - - - - - - - - 25.2 1012.1 -
06/08:30pm SSE 16 - - - - - - - - 25.0 1012.0 -
06/08:00pm SSE 17 - - - - - - - - 25.2 1011.8 -
06/07:30pm SSE 17 - - - - - - - - 25.0 1011.0 -
06/07:00pm S 18 - - - - - - - - 25.2 1011.3 -

Other formats

Comma delimited format used in spreadsheet applications
http://www.bom.gov.au/fwo/IDW60701/IDW60701.94103.axf

JavaScript Object Notation format (JSON) in row-major order
http://www.bom.gov.au/fwo/IDW60701/IDW60701.94103.json

Data quality

Most of these data are generated automatically and are frequently updated. Quality checks on data are not normally performed. It is possible for incorrect values to appear. Refer to information at About Latest Weather Observations and please check the disclaimer before using these data.